Powrót do katalogu

CHINASAT 6A

AktywnyŁącznośćGEO
NORAD 37150·PAYLOAD·🇨🇳 China

Wystrzelony Sep 4, 2010 z Xichang Satellite Launch Center

Loading…

TLE

ŚwieżeSource: Space-Track

Epoka: Sep 14, 2026, 13:35 UTC

1 37150U 10042A   26257.56651153  .00000108  00000-0  00000-0 0  9996
2 37150   4.4503  76.0620 0001648 171.0232 173.9559  0.99697333 58764

Śledź CHINASAT 6A w czasie rzeczywistym z AllMySat

Download on the App Store